FW8756 Weather Reports


Display with metric or nautical units.
time (UTC)temp
F
wind
direction
speed
MPH
gust
MPH
rain 1hr
in
rain 24hr
in
rain mn
in
humidity
%
barometer
mb
20260510230759 86 180 1.0 1.0 0.00 0.00 0.00 69 1010.4
20260510230254 87 113 1.0 2.0 0.00 0.00 0.00 69 1010.5
20260510225751 87 117 2.0 3.0 0.00 0.00 0.00 67 1010.7
20260510225247 87 126 2.0 5.0 0.00 0.00 0.00 67 1010.6
20260510224743 88 106 0.0 1.0 0.00 0.00 0.00 66 1010.5
20260510224239 87 169 0.0 0.0 0.00 0.00 0.00 67 1010.5
20260510223737 87 44 0.0 1.0 0.00 0.00 0.00 67 1010.7
20260510223234 87 136 0.0 1.0 0.00 0.00 0.00 66 1010.7
20260510222732 87 72 5.0 7.0 0.00 0.00 0.00 66 1011.0
20260510222228 88 86 4.0 8.0 0.00 0.00 0.00 64 1011.0
20260510221723 88 92 0.0 0.0 0.00 0.00 0.00 63 1010.9
20260510221220 89 71 1.0 5.0 0.00 0.00 0.00 62 1010.8
20260510220717 91 58 0.0 1.0 0.00 0.00 0.00 60 1011.0
20260510220212 91 170 0.0 0.0 0.00 0.00 0.00 59 1011.2
20260510215709 90 79 0.0 0.0 0.00 0.00 0.00 60 1011.2
20260510215207 88 129 1.0 2.0 0.00 0.00 0.00 62 1011.4
20260510214704 89 121 0.0 0.0 0.00 0.00 0.00 61 1011.2
20260510214201 89 190 1.0 2.0 0.00 0.00 0.00 61 1011.6
20260510213658 89 151 0.0 0.0 0.00 0.00 0.00 62 1011.7
20260510213154 92 84 1.0 1.0 0.00 0.00 0.00 59 1011.7
20260510212650 91 134 0.0 0.0 0.00 0.00 0.00 58 1011.8
20260510212148 89 144 0.0 0.0 0.00 0.00 0.00 60 1011.7
20260510211644 90 81 1.0 3.0 0.00 0.00 0.00 60 1011.6
20260510211139 91 123 0.0 0.0 0.00 0.00 0.00 60 1011.7
20260510210636 94 269 1.0 2.0 0.00 0.00 0.00 56 1012.1
20260510210131 91 133 1.0 3.0 0.00 0.00 0.00 56 1012.1
20260510205630 92 168 2.0 2.0 0.00 0.00 0.00 60 1011.9
20260510205126 93 182 0.0 0.0 0.00 0.00 0.00 55 1012.0
20260510204622 90 108 0.0 0.0 0.00 0.00 0.00 59 1012.0
20260510204119 90 165 1.0 1.0 0.00 0.00 0.00 59 1012.3
20260510203616 91 127 0.0 1.0 0.00 0.00 0.00 58 1012.0
20260510203113 91 140 1.0 2.0 0.00 0.00 0.00 58 1012.0
20260510202612 91 168 3.0 3.0 0.00 0.00 0.00 62 1012.0
20260510202108 91 139 2.0 2.0 0.00 0.00 0.00 59 1011.7
20260510201606 92 172 0.0 1.0 0.00 0.00 0.00 55 1011.7
20260510201103 93 176 3.0 5.0 0.00 0.00 0.00 56 1011.7
20260510200559 91 170 0.0 0.0 0.00 0.00 0.00 57 1011.9
20260510200057 91 204 0.0 0.0 0.00 0.00 0.00 58 1012.0
20260510195554 90 156 0.0 0.0 0.00 0.00 0.00 59 1011.9
20260510195050 89 142 0.0 0.0 0.00 0.00 0.00 59 1012.0
20260510194545 88 133 3.0 3.0 0.00 0.00 0.00 62 1012.0
20260510194042 91 196 3.0 3.0 0.00 0.00 0.00 62 1011.9
20260510193542 89 174 0.0 1.0 0.00 0.00 0.00 62 1012.0
20260510193038 89 159 1.0 2.0 0.00 0.00 0.00 63 1011.9
20260510192537 88 76 2.0 3.0 0.00 0.00 0.00 62 1011.8
20260510192034 89 161 1.0 3.0 0.00 0.00 0.00 64 1012.0
20260510191530 91 152 0.0 0.0 0.00 0.00 0.00 61 1011.8
20260510191027 88 173 0.0 0.0 0.00 0.00 0.00 64 1011.6
20260510190525 89 153 0.0 0.0 0.00 0.00 0.00 66 1011.8
20260510190022 87 84 1.0 2.0 0.00 0.00 0.00 66 1011.7
20260510185518 87 149 0.0 0.0 0.00 0.00 0.00 66 1011.9
20260510185016 89 113 1.0 2.0 0.00 0.00 0.00 65 1012.0
20260510184513 89 225 4.0 6.0 0.00 0.00 0.00 65 1011.9
20260510184008 88 188 0.0 0.0 0.00 0.00 0.00 67 1011.8
20260510183504 89 261 3.0 5.0 0.00 0.00 0.00 65 1011.8
20260510183000 89 170 1.0 2.0 0.00 0.00 0.00 66 1011.6
20260510182456 88 222 1.0 1.0 0.00 0.00 0.00 66 1012.0
20260510181951 87 130 0.0 0.0 0.00 0.00 0.00 69 1011.8
20260510181450 86 152 0.0 0.0 0.00 0.00 0.00 70 1012.0
20260510180945 87 167 0.0 2.0 0.00 0.00 0.00 70 1012.1
20260510180443 86 169 0.0 0.0 0.00 0.00 0.00 72 1012.2
20260510175939 85 133 0.0 0.0 0.00 0.00 0.00 72 1012.3
20260510175435 87 150 1.0 2.0 0.00 0.00 0.00 69 1012.3
20260510174931 85 150 0.0 0.0 0.00 0.00 0.00 73 1012.3
20260510174430 87 148 0.0 1.0 0.00 0.00 0.00 72 1012.3
20260510173926 86 159 0.0 0.0 0.00 0.00 0.00 72 1012.5
20260510173421 87 194 0.0 0.0 0.00 0.00 0.00 70 1012.7
20260510172918 85 144 0.0 0.0 0.00 0.00 0.00 73 1012.6
20260510172414 84 181 1.0 1.0 0.00 0.00 0.00 73 1012.5
20260510171910 84 151 1.0 1.0 0.00 0.00 0.00 73 1012.7
20260510171408 85 84 2.0 5.0 0.00 0.00 0.00 72 1012.7
20260510170904 84 166 0.0 1.0 0.00 0.00 0.00 73 1013.1
20260510170401 85 199 5.0 6.0 0.00 0.00 0.00 72 1012.8
20260510165856 86 150 2.0 5.0 0.00 0.00 0.00 71 1013.0
20260510165353 85 155 2.0 5.0 0.00 0.00 0.00 72 1013.0
20260510164850 84 79 4.0 6.0 0.00 0.00 0.00 72 1013.1
20260510164347 85 69 2.0 2.0 0.00 0.00 0.00 73 1013.1
20260510163847 85 104 2.0 3.0 0.00 0.00 0.00 74 1013.0
20260510163343 83 229 0.0 0.0 0.00 0.00 0.00 75 1013.3
20260510162837 83 164 1.0 2.0 0.00 0.00 0.00 75 1013.2
20260510162335 83 175 5.0 7.0 0.00 0.00 0.00 75 1013.2
20260510161830 82 134 2.0 2.0 0.00 0.00 0.00 76 1013.3
20260510161327 82 168 2.0 3.0 0.00 0.00 0.00 76 1013.4
20260510160824 82 188 2.0 2.0 0.00 0.00 0.00 76 1013.5
20260510160320 82 137 4.0 6.0 0.00 0.00 0.00 76 1013.2
20260510155814 84 166 1.0 2.0 0.00 0.00 0.00 75 1013.5
20260510155312 84 156 0.0 0.0 0.00 0.00 0.00 76 1013.2
20260510154808 83 208 1.0 2.0 0.00 0.00 0.00 76 1013.6
20260510154303 82 190 3.0 3.0 0.00 0.00 0.00 77 1013.3
20260510153758 83 157 2.0 3.0 0.00 0.00 0.00 76 1013.7
20260510153254 84 203 1.0 1.0 0.00 0.00 0.00 75 1013.7
20260510152751 82 173 0.0 1.0 0.00 0.00 0.00 75 1014.0
20260510152248 81 154 2.0 3.0 0.00 0.00 0.00 77 1013.8
20260510151744 81 250 2.0 3.0 0.00 0.00 0.00 78 1014.0
20260510151243 80 159 0.0 1.0 0.00 0.00 0.00 78 1013.9
20260510150738 80 148 2.0 2.0 0.00 0.00 0.00 78 1013.8
20260510150234 80 157 2.0 3.0 0.00 0.00 0.00 78 1013.9
20260510145730 81 158 0.0 0.0 0.00 0.00 0.00 78 1013.7
20260510145227 80 149 1.0 2.0 0.00 0.00 0.00 79 1013.9
20260510144723 79 147 1.0 1.0 0.00 0.00 0.00 79 1013.8
20260510144221 80 200 1.0 1.0 0.00 0.00 0.00 79 1013.8
20260510143714 80 181 2.0 2.0 0.00 0.00 0.00 79 1013.7
20260510143211 80 163 0.0 0.0 0.00 0.00 0.00 80 1013.8
20260510142708 79 102 1.0 2.0 0.00 0.00 0.00 80 1013.9
20260510142204 79 165 1.0 1.0 0.00 0.00 0.00 81 1014.2
20260510141701 80 107 2.0 6.0 0.00 0.00 0.00 81 1014.0
20260510141200 78 169 0.0 1.0 0.00 0.00 0.00 85 1014.4
20260510140656 78 126 0.0 0.0 0.00 0.00 0.00 87 1014.4
20260510140155 77 170 0.0 1.0 0.00 0.00 0.00 90 1014.1
20260510135650 76 157 0.0 0.0 0.00 0.00 0.00 92 1014.3
20260510135147 75 153 0.0 0.0 0.00 0.00 0.00 92 1014.0
20260510134644 74 54 0.0 0.0 0.00 0.00 0.00 93 1014.1
20260510134141 74 154 0.0 0.0 0.00 0.00 0.00 93 1014.1
20260510133637 74 118 0.0 0.0 0.00 0.00 0.00 94 1014.1
20260510133132 74 116 0.0 0.0 0.00 0.00 0.00 94 1014.2
20260510132629 74 103 0.0 0.0 0.00 0.00 0.00 94 1014.1
20260510132127 73 147 0.0 0.0 0.00 0.00 0.00 94 1014.0
20260510131624 73 162 0.0 0.0 0.00 0.00 0.00 94 1014.2
20260510131121 73 113 0.0 0.0 0.00 0.00 0.00 94 1014.1
20260510130618 73 51 0.0 1.0 0.00 0.00 0.00 94 1014.1
20260510130115 73 73 0.0 1.0 0.00 0.00 0.00 95 1013.8
20260510125612 73 12 0.0 0.0 0.00 0.00 0.00 95 1013.8
20260510125108 73 149 0.0 0.0 0.00 0.00 0.00 95 1013.5
20260510124604 73 144 0.0 0.0 0.00 0.00 0.00 95 1013.4
20260510124102 73 146 0.0 0.0 0.00 0.00 0.00 95 1013.4
20260510123556 73 143 0.0 0.0 0.00 0.00 0.00 95 1013.1
20260510123053 73 86 0.0 0.0 0.00 0.00 0.00 95 1013.2
20260510122549 73 126 0.0 0.0 0.00 0.00 0.00 95 1012.8
20260510122045 73 84 0.0 0.0 0.00 0.00 0.00 95 1012.2
20260510121543 73 140 0.0 0.0 0.00 0.00 0.00 95 1012.5
20260510121040 72 139 0.0 0.0 0.00 0.00 0.00 95 1012.2
20260510120537 72 147 0.0 0.0 0.00 0.00 0.00 95 1012.2
20260510120032 73 150 0.0 0.0 0.00 0.00 0.00 95 1012.0
20260510115529 72 149 0.0 0.0 0.00 0.00 0.00 95 1011.9
20260510115026 72 148 0.0 0.0 0.00 0.00 0.00 95 1011.7
20260510114522 72 149 0.0 0.0 0.00 0.00 0.00 95 1011.7
20260510114019 72 146 0.0 0.0 0.00 0.00 0.00 95 1012.0
20260510113514 72 144 0.0 0.0 0.00 0.00 0.00 95 1011.7
20260510113012 72 130 0.0 0.0 0.00 0.00 0.00 95 1011.7
20260510112508 72 151 0.0 0.0 0.00 0.00 0.00 95 1011.6
20260510112005 72 149 0.0 0.0 0.00 0.00 0.00 95 1011.6
20260510111501 72 151 0.0 0.0 0.00 0.00 0.00 95 1011.4
20260510110957 72 142 0.0 0.0 0.00 0.00 0.00 95 1011.6
20260510110454 72 143 0.0 0.0 0.00 0.00 0.00 95 1011.4
20260510105949 72 152 0.0 0.0 0.00 0.00 0.00 95 1011.2
20260510105445 72 144 0.0 0.0 0.00 0.00 0.00 95 1011.0
20260510104940 72 153 0.0 0.0 0.00 0.00 0.00 95 1011.0
20260510104437 72 185 1.0 2.0 0.00 0.00 0.00 95 1010.8
20260510103933 72 153 0.0 0.0 0.00 0.00 0.00 95 1010.6
20260510103431 72 103 1.0 2.0 0.00 0.00 0.00 95 1010.7
20260510102926 72 157 0.0 0.0 0.00 0.00 0.00 95 1010.5
20260510102422 72 152 0.0 0.0 0.00 0.00 0.00 95 1010.5
20260510101919 72 148 0.0 0.0 0.00 0.00 0.00 95 1010.2
20260510101417 72 147 0.0 0.0 0.00 0.00 0.00 95 1010.2
20260510100915 72 87 0.0 0.0 0.00 0.00 0.00 95 1010.0
20260510100411 72 131 0.0 1.0 0.00 0.00 0.00 95 1009.8
20260510095908 72 148 0.0 0.0 0.00 0.00 0.00 95 1010.1
20260510095403 72 136 0.0 0.0 0.00 0.00 0.00 94 1009.7
20260510094902 72 142 0.0 0.0 0.00 0.00 0.00 94 1009.8
20260510094357 72 149 0.0 0.0 0.00 0.00 0.00 94 1009.9
20260510093854 72 146 0.0 0.0 0.00 0.00 0.00 94 1009.8
20260510093349 72 134 0.0 0.0 0.00 0.00 0.00 94 1009.8
20260510092846 72 160 0.0 0.0 0.00 0.00 0.00 94 1009.5
20260510092342 72 146 0.0 0.0 0.00 0.00 0.00 94 1009.8
20260510091838 72 115 0.0 0.0 0.00 0.00 0.00 94 1009.8
20260510091336 72 146 0.0 0.0 0.00 0.00 0.00 94 1009.7
20260510090832 72 150 0.0 0.0 0.00 0.00 0.00 94 1009.8
20260510090329 72 145 0.0 0.0 0.00 0.00 0.00 94 1009.7
20260510085824 72 149 0.0 0.0 0.00 0.00 0.00 94 1009.7
20260510085324 72 157 0.0 0.0 0.00 0.00 0.00 94 1009.5
20260510084820 72 154 0.0 0.0 0.00 0.00 0.00 94 1009.5
20260510084317 72 154 0.0 0.0 0.00 0.00 0.00 94 1009.7
20260510083814 72 172 0.0 0.0 0.00 0.00 0.00 94 1009.6
20260510083311 72 147 0.0 0.0 0.00 0.00 0.00 94 1009.6
20260510082806 72 159 0.0 0.0 0.00 0.00 0.00 94 1009.7
20260510082306 72 154 0.0 0.0 0.00 0.00 0.00 94 1009.7
20260510081802 72 131 0.0 0.0 0.00 0.00 0.00 94 1009.7
20260510081259 72 161 0.0 0.0 0.00 0.00 0.00 94 1009.7
20260510080754 72 146 0.0 0.0 0.00 0.00 0.00 94 1009.7
20260510080250 72 146 0.0 0.0 0.00 0.00 0.00 94 1009.8
20260510075747 72 143 0.0 0.0 0.00 0.00 0.00 94 1009.7
20260510075245 72 152 0.0 0.0 0.00 0.00 0.00 94 1009.9
20260510074741 72 134 0.0 0.0 0.00 0.00 0.00 94 1009.9
20260510074238 72 160 0.0 0.0 0.00 0.00 0.00 94 1010.2
20260510073734 72 163 0.0 0.0 0.00 0.00 0.00 94 1009.6
20260510073230 72 156 0.0 0.0 0.00 0.00 0.00 93 1010.0
20260510072726 72 140 0.0 0.0 0.00 0.00 0.00 93 1009.6
20260510072223 72 159 0.0 0.0 0.00 0.00 0.00 93 1009.8
20260510071719 72 153 0.0 0.0 0.00 0.00 0.00 93 1010.1
20260510071216 72 184 0.0 0.0 0.00 0.00 0.00 93 1009.6
20260510070714 72 159 0.0 0.0 0.00 0.00 0.00 93 1010.0
20260510070211 72 160 0.0 0.0 0.00 0.00 0.00 93 1009.9
20260510065706 72 139 0.0 0.0 0.00 0.00 0.00 93 1010.0
20260510065203 72 131 0.0 0.0 0.00 0.00 0.00 93 1009.8
20260510064659 72 152 0.0 1.0 0.00 0.00 0.00 93 1009.9
20260510064156 72 139 1.0 2.0 0.00 0.00 0.00 93 1009.9
20260510063654 72 168 0.0 0.0 0.00 0.00 0.00 93 1009.9
20260510063150 72 159 0.0 0.0 0.00 0.00 0.00 92 1010.1
20260510062646 72 149 0.0 0.0 0.00 0.00 0.00 92 1010.1
20260510062142 72 181 0.0 0.0 0.00 0.00 0.00 92 1010.2
20260510061637 72 158 4.0 5.0 0.00 0.00 0.00 92 1010.4
20260510061135 72 175 1.0 2.0 0.00 0.00 0.00 92 1010.1
20260510060631 72 160 3.0 5.0 0.00 0.00 0.00 92 1010.1
20260510060128 72 99 1.0 2.0 0.00 0.00 0.00 92 1010.4
20260510055624 72 171 0.0 0.0 0.00 0.00 0.00 92 1010.2
20260510055123 72 152 0.0 0.0 0.00 0.00 0.00 92 1010.3
20260510054617 72 144 0.0 0.0 0.00 0.00 0.00 91 1010.6
20260510054113 72 147 0.0 0.0 0.00 0.00 0.00 91 1010.6
20260510053612 72 158 0.0 0.0 0.00 0.00 0.00 91 1010.7
20260510053110 72 150 0.0 1.0 0.00 0.00 0.00 91 1010.6
20260510052605 72 147 2.0 2.0 0.00 0.00 0.00 91 1010.5
20260510052102 72 80 0.0 0.0 0.00 0.00 0.00 91 1010.5
20260510051557 72 128 2.0 2.0 0.00 0.00 0.00 90 1010.1
20260510051055 72 132 0.0 0.0 0.00 0.00 0.00 90 1010.6
20260510050552 72 115 0.0 1.0 0.00 0.00 0.00 90 1010.5
20260510050049 72 164 0.0 0.0 0.00 0.00 0.00 89 1010.4
20260510045546 72 164 0.0 0.0 0.00 0.00 0.00 89 1010.4
20260510045042 71 163 0.0 0.0 0.00 0.00 0.00 89 1010.3
20260510044538 71 128 0.0 1.0 0.00 0.00 0.00 88 1010.5
20260510044036 71 140 0.0 0.0 0.00 0.00 0.00 88 1010.3
20260510043532 71 120 0.0 1.0 0.00 0.00 0.00 88 1010.7
20260510043027 71 161 0.0 0.0 0.00 0.00 0.00 88 1010.6
20260510042522 71 127 4.0 6.0 0.00 0.00 0.00 88 1010.4
20260510042022 71 130 0.0 1.0 0.00 0.00 0.00 88 1010.6
20260510041520 71 155 2.0 3.0 0.00 0.00 0.00 88 1010.4
20260510041017 72 145 0.0 0.0 0.00 0.00 0.00 88 1010.3
20260510040513 72 149 0.0 1.0 0.00 0.00 0.00 88 1010.2
20260510040009 72 152 0.0 0.0 0.00 0.00 0.00 88 1010.3
20260510035506 72 165 0.0 0.0 0.00 0.00 0.00 88 1010.2
20260510035005 72 154 0.0 1.0 0.00 0.00 0.00 88 1010.4
20260510034504 72 164 0.0 0.0 0.00 0.00 0.00 88 1010.5
20260510034000 72 170 0.0 0.0 0.00 0.00 0.00 88 1010.2
20260510033456 72 141 0.0 0.0 0.00 0.00 0.00 87 1010.2
20260510032954 72 163 0.0 0.0 0.00 0.00 0.00 87 1010.6
20260510032450 72 165 2.0 3.0 0.00 0.00 0.00 87 1010.4
20260510031945 73 147 1.0 1.0 0.00 0.00 0.00 86 1010.7
20260510031441 73 228 2.0 5.0 0.00 0.00 0.00 86 1010.6
20260510030937 73 148 2.0 6.0 0.00 0.00 0.00 86 1010.4
20260510030432 73 128 4.0 6.0 0.00 0.00 0.00 86 1010.1
20260510025930 74 140 0.0 0.0 0.00 0.00 0.00 85 1010.4
20260510025427 74 178 2.0 3.0 0.00 0.00 0.00 84 1010.0
20260510024924 76 167 7.0 9.0 0.00 0.00 0.00 81 1010.1
20260510024420 77 197 4.0 7.0 0.00 0.00 0.00 78 1010.3
20260510023917 78 41 3.0 7.0 0.00 0.00 0.00 77 1009.9
20260510023413 79 167 5.0 6.0 0.00 0.00 0.00 77 1009.6
20260510022911 81 144 7.0 11.0 0.00 0.00 0.00 79 1009.1
20260510022409 80 89 0.0 1.0 0.00 0.00 0.00 80 1008.8
20260510021909 80 105 2.0 3.0 0.00 0.00 0.00 80 1008.7
20260510021407 80 153 0.0 0.0 0.00 0.00 0.00 81 1008.7
20260510020903 81 163 0.0 0.0 0.00 0.00 0.00 81 1008.3
20260510020358 81 144 0.0 0.0 0.00 0.00 0.00 81 1008.3
20260510015854 81 136 0.0 0.0 0.00 0.00 0.00 81 1008.3
20260510015350 81 134 0.0 0.0 0.00 0.00 0.00 81 1008.2
20260510014845 81 143 0.0 0.0 0.00 0.00 0.00 80 1008.3
20260510014343 81 129 0.0 0.0 0.00 0.00 0.00 80 1007.9
20260510013839 82 151 0.0 0.0 0.00 0.00 0.00 80 1008.0
20260510013335 82 149 0.0 0.0 0.00 0.00 0.00 80 1007.8
20260510012830 82 127 0.0 0.0 0.00 0.00 0.00 79 1008.0
20260510012329 82 143 0.0 0.0 0.00 0.00 0.00 79 1007.9
20260510011825 82 144 0.0 0.0 0.00 0.00 0.00 78 1007.6
20260510011320 83 144 0.0 0.0 0.00 0.00 0.00 78 1007.7
20260510010817 83 139 0.0 0.0 0.00 0.00 0.00 78 1007.6
20260510010314 84 148 0.0 0.0 0.00 0.00 0.00 77 1007.6
20260510005811 84 148 0.0 0.0 0.00 0.00 0.00 77 1007.5
20260510005307 84 150 0.0 0.0 0.00 0.00 0.00 76 1007.4
20260510004805 85 152 0.0 0.0 0.00 0.00 0.00 76 1007.0
20260510004302 85 150 0.0 0.0 0.00 0.00 0.00 76 1007.2
20260510003759 85 132 0.0 0.0 0.00 0.00 0.00 75 1007.1
20260510003257 85 155 0.0 0.0 0.00 0.00 0.00 75 1007.3
20260510002755 86 153 0.0 0.0 0.00 0.00 0.00 75 1006.9
20260510002253 86 153 0.0 0.0 0.00 0.00 0.00 73 1007.1
20260510001749 86 160 0.0 0.0 0.00 0.00 0.00 73 1006.8
20260510001248 85 154 0.0 0.0 0.00 0.00 0.00 73 1007.0
20260510000743 85 156 0.0 0.0 0.00 0.00 0.00 74 1006.8
20260510000241 86 151 0.0 0.0 0.00 0.00 0.00 74 1006.6
20260509235737 85 153 0.0 0.0 0.00 0.00 0.00 73 1006.9
20260509235234 85 154 0.0 0.0 0.00 0.00 0.00 73 1006.4
20260509234729 85 153 0.0 0.0 0.00 0.00 0.00 73 1006.8
20260509234227 85 153 0.0 0.0 0.00 0.00 0.00 74 1006.8
20260509233725 85 149 0.0 0.0 0.00 0.00 0.00 74 1006.6
20260509233222 86 152 0.0 0.0 0.00 0.00 0.00 73 1007.0
20260509232718 86 151 0.0 0.0 0.00 0.00 0.00 73 1006.6
20260509232216 86 154 0.0 0.0 0.00 0.00 0.00 71 1006.7
20260509231712 87 143 0.0 0.0 0.00 0.00 0.00 70 1006.9